Terminal Aerodrome Forecast
Issued by NWS Dodge City, KS

Home | Current Version | Previous Version | Graphics & Text | Print | Product List | Glossary Off
Versions: 1 2 3 4 5 6 7 8 9 10 11 12 13 14 15 16 17 18 19 20 21 22 23 24 25 26 27 28 29 30 31 32 33 34 35 36 37 38 39 40 41 42 43 44 45 46 47

000
FTUS43 KDDC 260520
TAFDDC
TAF
KDDC 260520Z 2606/2706 06013KT 3SM BR OVC004
      TEMPO 2612/2614 1SM BR OVC001
     FM261900 06014KT P6SM OVC015
     FM270000 06020KT 4SM -SHRA BR OVC007=

USA.gov is the U.S. government's official web portal to all federal, state and local government web resources and services.